Spencer, IA

6:24 PM CDT on May 28, 2017 (GMT -0500)
Spencer Municipal

Weather History for KSPW - January, 2014

Change the Weather History Date:

Sunday, January 12, 2014

  Actual Average Record
Temperature  
Mean Temperature 35 °F -  
Max Temperature 42 °F 26 °F 52 °F (2006)
Min Temperature 28 °F 5 °F -26 °F (1974)
Degree Days  
Heating Degree Days 30    
Moisture  
Dew Point 29 °F    
Average Humidity 72    
Maximum Humidity 82    
Minimum Humidity 62    
Precipitation  
Precipitation 0.00 in - - ()
Sea Level Pressure  
Sea Level Pressure 29.52 in    
Wind  
Wind Speed 14 mph (WSW)    
Max Wind Speed 21 mph    
Max Gust Speed 28 mph    
Visibility 10 miles    
Events      
Averages and records for this station are not official NWS values.
T = Trace of Precipitation, MM = Missing Value Source: NWS Daily Summary

Daily Weather History Graph

Daily Weather History Graph

Search for Another Location

Airport or City:

Trip Planner

Search our weather history database for the weather conditions in past years. The results will help you decide how hot, cold, wet, or windy it might be!

Date:

Astronomy

Jan. 12, 2014 Rise Set
Actual Time 7:51 AM CST 5:07 PM CST
Civil Twilight 7:19 AM CST 5:39 PM CST
Nautical Twilight 6:43 AM CST 6:14 PM CST
Astronomical Twilight 6:09 AM CST 6:48 PM CST
Moon 2:36 PM CST (1/12) 4:49 AM CST (1/12)
Length of Visible Light 10h 20m
Length of Day
9h 16m
Waxing Gibbous, 90% of the Moon is Illuminated
Jan 12
Waxing Gibbous
Jan 15
Full
Jan 23
Last Quarter
Jan 30
New
Feb 6
First Quarter

Hourly Weather History & Observations

Time (CST) Temp. Windchill Dew Point Humidity Pressure Visibility Wind Dir Wind Speed Gust Speed Precip Events Conditions
12:53 AM 28.0 °F 16.5 °F 21.0 °F 75% 29.63 in 10.0 mi South 15.0 mph - N/A   Clear
1:53 AM 30.9 °F 18.7 °F 23.0 °F 72% 29.58 in 10.0 mi South 19.6 mph - N/A   Clear
2:53 AM 30.0 °F 18.3 °F 24.1 °F 79% 29.53 in 10.0 mi SSE 17.3 mph - N/A   Clear
3:53 AM 35.1 °F 23.8 °F 26.1 °F 70% 29.47 in 10.0 mi South 20.7 mph - N/A   Scattered Clouds
4:53 AM 37.0 °F 26.4 °F 27.0 °F 67% 29.42 in 10.0 mi South 20.7 mph 27.6 mph N/A   Clear
5:53 AM 37.9 °F 27.9 °F 26.1 °F 62% 29.43 in 10.0 mi SSW 19.6 mph - N/A   Clear
6:53 AM 36.0 °F 26.3 °F 26.1 °F 67% 29.44 in 10.0 mi SSW 16.1 mph - N/A   Clear
7:53 AM 35.1 °F 25.5 °F 26.1 °F 70% 29.44 in 10.0 mi SSW 15.0 mph - N/A   Clear
8:53 AM 39.0 °F 29.9 °F 27.0 °F 62% 29.45 in 10.0 mi SW 17.3 mph - N/A   Clear
9:53 AM 39.0 °F 31.4 °F 28.0 °F 65% 29.47 in 10.0 mi WSW 12.7 mph - N/A   Clear
10:53 AM 39.9 °F 33.9 °F 28.9 °F 65% 29.47 in 10.0 mi WSW 9.2 mph - N/A   Clear
11:53 AM 41.0 °F 34.3 °F 30.9 °F 67% 29.46 in 10.0 mi WNW 11.5 mph - N/A   Clear
12:53 PM 42.1 °F 36.6 °F 33.1 °F 70% 29.44 in 10.0 mi NW 9.2 mph - N/A   Clear
1:53 PM 42.1 °F 39.2 °F 33.1 °F 70% 29.45 in 10.0 mi NW 4.6 mph - N/A   Clear
2:53 PM 42.1 °F 37.7 °F 33.1 °F 70% 29.49 in 10.0 mi West 6.9 mph - N/A   Clear
3:53 PM 39.0 °F 34.0 °F 32.0 °F 76% 29.52 in 10.0 mi WNW 6.9 mph - N/A   Clear
4:53 PM 37.0 °F 32.4 °F 30.9 °F 79% 29.53 in 10.0 mi West 5.8 mph - N/A   Clear
5:53 PM 36.0 °F 29.6 °F 30.9 °F 82% 29.56 in 10.0 mi SW 8.1 mph - N/A   Clear
6:53 PM 37.0 °F 30.4 °F 30.9 °F 79% 29.60 in 10.0 mi WSW 9.2 mph - N/A   Overcast
7:53 PM 37.0 °F 29.3 °F 30.9 °F 79% 29.62 in 10.0 mi West 11.5 mph - N/A   Overcast
8:53 PM 37.0 °F 28.5 °F 30.9 °F 79% 29.60 in 10.0 mi West 13.8 mph - N/A   Partly Cloudy
9:53 PM 36.0 °F 28.0 °F 30.0 °F 79% 29.61 in 10.0 mi West 11.5 mph - N/A   Clear
10:53 PM 37.9 °F 29.6 °F 30.0 °F 73% 29.61 in 10.0 mi West 13.8 mph - N/A   Clear
11:53 PM 37.0 °F 29.3 °F 30.0 °F 76% 29.60 in 10.0 mi West 11.5 mph - N/A   Partly Cloudy